, AK

(GMT )
Northway

Weather History for PAOR - January, 2014

Change the Weather History Date:

Thursday, January 16, 2014

  Actual Average Record
Temperature  
Mean Temperature 9 °F -  
Max Temperature 17 °F -14 °F 27 °F (1963)
Min Temperature -2 °F -29 °F -64 °F (1973)
Degree Days  
Heating Degree Days 56    
Moisture  
Dew Point 7 °F    
Average Humidity 85    
Maximum Humidity 88    
Minimum Humidity 79    
Precipitation  
Precipitation 0.00 in - - ()
Snow  
Snow 0.00 in - - ()
Snow Depth 16.00 in    
Sea Level Pressure  
Sea Level Pressure 29.66 in    
Wind  
Wind Speed 1 mph (SE)    
Max Wind Speed 8 mph    
Max Gust Speed -    
Visibility 8 miles    
Events Snow    
Averages and records for this station are not official NWS values.
T = Trace of Precipitation, MM = Missing Value Source: NWS Daily Summary

Daily Weather History Graph

Daily Weather History Graph

Search for Another Location

Airport or City:

Trip Planner

Search our weather history database for the weather conditions in past years. The results will help you decide how hot, cold, wet, or windy it might be!

Date:

Astronomy

Jan. 16, 2014 Rise Set
Actual Time 9:39 AM AKST 3:36 PM AKST
Civil Twilight 8:37 AM AKST 4:38 PM AKST
Nautical Twilight 7:37 AM AKST 5:38 PM AKST
Astronomical Twilight 6:41 AM AKST 6:34 PM AKST
Moon 5:18 PM AKST (1/16) 9:00 AM AKST (1/16)
Length of Visible Light 8h 00m
Length of Day
5h 57m
Full, 100% of the Moon is Illuminated
Jan 16
Full
Jan 23
Last Quarter
Jan 30
New
Feb 6
First Quarter
Feb 14
Full

Hourly Weather History & Observations

Time (AKST) Temp. Windchill Dew Point Humidity Pressure Visibility Wind Dir Wind Speed Gust Speed Precip Events Conditions
12:53 AM 3.0 °F - -0.9 °F 84% 29.84 in 10.0 mi Calm Calm - N/A   Mostly Cloudy
1:53 AM 3.9 °F - -0.0 °F 84% 29.81 in 10.0 mi Calm Calm - N/A   Overcast
3:53 AM 7.0 °F - 1.9 °F 80% 29.75 in 10.0 mi Calm Calm - N/A   Overcast
4:53 AM 8.1 °F - 3.9 °F 83% 29.71 in 10.0 mi Calm Calm - N/A   Overcast
5:53 AM 9.0 °F 2.4 °F 5.0 °F 84% 29.68 in 10.0 mi ENE 3.5 mph - N/A   Overcast
6:53 AM 10.0 °F - 6.1 °F 84% 29.63 in 10.0 mi Calm Calm - N/A   Overcast
7:53 AM 10.0 °F - 6.1 °F 84% 29.57 in 10.0 mi Calm Calm - N/A   Overcast
8:53 AM 10.9 °F - 7.0 °F 84% 29.52 in 10.0 mi Calm Calm - N/A   Mostly Cloudy
9:53 AM 10.9 °F 2.9 °F 7.0 °F 84% 29.51 in 10.0 mi West 4.6 mph - N/A   Mostly Cloudy
10:53 AM 14.0 °F 8.2 °F 9.0 °F 80% 29.55 in 10.0 mi NW 3.5 mph - N/A   Mostly Cloudy
11:36 AM 15.8 °F - 12.2 °F 86% 29.41 in 2.0 mi Calm Calm - N/A Snow Light Snow
11:39 AM 15.8 °F - 12.2 °F 86% 29.41 in 1.2 mi Calm Calm - N/A Snow Light Snow
11:43 AM 15.8 °F - 12.2 °F 86% 29.41 in 0.5 mi Calm Calm - N/A Snow Snow
11:53 AM 15.1 °F - 12.0 °F 88% 29.56 in 0.2 mi Calm Calm - N/A Snow Heavy Snow
12:15 PM 15.8 °F 10.2 °F 12.2 °F 86% 29.41 in 1.5 mi SW 3.5 mph - N/A Snow Light Snow
12:26 PM 15.8 °F 10.2 °F 12.2 °F 86% 29.42 in 2.0 mi South 3.5 mph - N/A Snow Light Snow
12:53 PM 17.1 °F 11.7 °F 12.9 °F 84% 29.57 in 2.0 mi SSE 3.5 mph - N/A Snow Light Snow
1:09 PM 17.6 °F 9.3 °F 12.2 °F 79% 29.44 in 4.0 mi East 5.8 mph - N/A Snow Light Snow
1:53 PM 16.0 °F 7.4 °F 12.0 °F 84% 29.61 in 10.0 mi East 5.8 mph - N/A   Mostly Cloudy
2:17 PM 15.8 °F 8.6 °F 12.2 °F 86% 29.48 in 10.0 mi ESE 4.6 mph - N/A   Mostly Cloudy
2:53 PM 14.0 °F 2.9 °F 10.0 °F 84% 29.65 in 10.0 mi East 8.1 mph - N/A   Mostly Cloudy
3:53 PM 12.0 °F 2.7 °F 9.0 °F 88% 29.70 in 10.0 mi SE 5.8 mph - N/A   Mostly Cloudy
4:53 PM 14.0 °F 3.9 °F 10.9 °F 88% 29.73 in 10.0 mi ESE 6.9 mph - N/A   Mostly Cloudy
5:53 PM 15.1 °F 9.4 °F 12.0 °F 88% 29.78 in 10.0 mi ESE 3.5 mph - N/A   Mostly Cloudy
6:53 PM 10.9 °F - 8.1 °F 88% 29.84 in 10.0 mi Calm Calm - N/A   Scattered Clouds
7:53 PM 8.1 °F - 5.0 °F 87% 29.89 in 10.0 mi Calm Calm - N/A   Scattered Clouds
8:53 PM 7.0 °F - 3.9 °F 87% 29.92 in 10.0 mi Calm Calm - N/A   Scattered Clouds
9:53 PM 5.0 °F - 1.0 °F 84% 29.94 in 10.0 mi Calm Calm - N/A   Scattered Clouds
10:53 PM 1.0 °F - -2.0 °F 87% 29.95 in 10.0 mi Calm Calm - N/A   Scattered Clouds
11:53 PM -2.0 °F - -5.1 °F 87% 29.97 in 10.0 mi Calm Calm - N/A   Scattered Clouds